Wind_Speed
36 32 28 28 33 33 30 29 29 28 27 31 35 40 40 38 35 26 22 25 30 34 39 41 40 39 41 45 48 51 51 50 48 50 55 53 51 49 49 51 53 55 56 55
38 36 36 32 30 29 26 24 27 29 28 37 43 45 46 43 36 33 32 31 33 36 39 41 43 45 47 51 53 53 52 50 49 54 58 55 50 48 51 53 54 55 54 53
35 36 37 40 36 34 36 35 35 36 41 46 47 47 47 47 47 45 42 40 41 43 45 47 49 51 53 55 54 52 51 50 51 56 60 56 51 50 52 53 53 52 51 52
34 37 40 36 34 39 43 45 45 46 46 45 43 43 44 47 49 49 48 47 48 50 51 52 54 54 54 52 50 49 50 50 54 58 58 54 49 49 49 48 48 49 51 53
37 38 40 33 37 41 44 47 47 45 44 43 43 44 45 46 48 50 50 50 50 50 50 50 50 49 48 47 47 48 49 52 57 56 54 51 47 46 44 45 47 50 52 53
35 37 38 36 40 41 41 44 43 41 40 39 40 43 44 44 46 48 50 50 50 48 47 45 45 45 45 45 46 46 48 53 56 54 51 46 43 42 43 46 48 50 51 53
30 32 32 37 40 41 42 44 42 39 36 37 39 41 41 41 42 42 44 45 44 43 42 42 42 41 42 42 43 44 47 51 52 52 49 43 40 42 44 47 48 50 51 50
25 27 31 36 38 41 42 41 39 37 35 35 36 37 37 36 36 36 37 38 37 36 35 34 35 35 37 38 41 44 47 48 47 45 43 43 43 45 46 48 49 49 46 41
26 27 29 33 37 38 36 36 34 34 34 35 35 35 34 33 32 32 31 30 29 28 28 29 30 32 34 37 40 43 43 42 40 39 40 42 44 45 46 47 45 40 33 28
26 28 31 35 35 33 33 34 34 35 36 37 36 35 32 30 29 27 26 25 25 25 25 26 28 32 35 37 37 37 37 37 37 38 40 42 43 44 43 39 32 25 22 24
26 28 32 34 34 34 35 36 37 37 37 36 35 32 29 27 25 23 22 21 20 21 23 26 29 30 31 30 31 32 34 37 38 39 39 39 39 37 32 24 19 20 23 25
26 28 30 31 32 32 31 32 32 33 33 33 31 28 25 23 20 19 18 18 19 20 22 23 23 23 25 27 30 33 35 36 37 36 36 34 30 24 19 19 21 23 23 23
22 23 23 23 23 23 23 24 23 23 22 20 20 20 18 17 15 15 16 16 16 18 19 20 21 23 26 29 31 33 34 35 34 32 28 23 19 18 20 22 23 22 19 18
17 18 20 21 20 19 17 13 10 9 9 11 13 13 13 13 13 13 12 12 14 16 17 18 21 24 26 29 31 32 32 30 27 23 19 18 20 21 23 23 21 18 14 13
12 12 11 10 8 9 8 7 6 5 6 7 8 9 10 11 9 8 9 11 13 14 16 19 22 26 29 31 31 30 28 24 21 19 19 21 22 22 21 20 18 14 10 10
4 4 3 2 3 4 5 5 4 4 4 4 4 4 4 4 4 7 8 10 12 15 18 21 25 28 30 29 28 24 21 20 19 19 20 21 21 19 17 16 14 9 8 9
6 6 6 6 5 4 3 2 3 5 6 5 4 2 1 3 5 6 7 10 13 16 19 23 27 28 28 27 24 20 18 19 19 20 19 19 17 15 14 13 10 8 8 9
10 12 13 12 9 7 5 5 6 6 5 4 4 3 4 5 6 6 9 11 14 17 21 24 27 27 26 23 20 18 18 19 19 18 17 16 13 12 11 10 10 9 9 9
9 10 11 11 10 9 8 8 8 7 7 6 6 6 6 7 7 8 9 12 15 19 22 25 26 25 21 18 18 18 19 19 18 17 15 13 12 10 10 10 10 10 10 10
9 9 9 9 9 9 9 9 8 8 7 7 6 7 8 8 8 9 11 13 17 21 24 25 25 23 21 19 19 20 21 20 19 17 15 13 11 10 10 10 10 11 11 13
10 9 7 7 7 7 8 8 7 6 6 6 6 8 8 8 9 11 13 16 20 23 24 26 27 27 24 22 22 24 25 24 22 20 17 15 13 12 11 10 11 12 12 13
10 8 5 3 2 3 4 5 5 4 4 5 7 8 9 10 11 12 14 18 21 23 25 29 31 30 27 27 28 28 29 29 27 25 22 19 17 15 14 13 12 13 13 14
10 7 6 4 2 2 3 4 4 3 3 6 8 8 9 10 11 12 15 18 20 22 26 30 33 32 31 32 33 33 33 33 32 31 28 25 22 20 18 16 16 16 16 16
14 12 10 8 6 4 4 5 5 4 4 8 9 9 10 10 10 12 14 16 18 20 24 29 32 33 35 37 36 35 35 35 35 35 34 32 29 26 23 20 18 17 16 15
15 14 13 11 9 7 7 6 6 6 7 11 11 11 10 9 10 12 13 14 15 17 21 25 29 31 34 37 37 37 38 37 37 38 37 37 35 33 29 26 23 20 17 15
14 14 13 13 11 9 9 9 8 8 11 15 14 12 11 9 10 11 12 12 13 15 19 22 25 28 31 33 35 37 38 40 41 41 42 42 41 40 38 34 31 26 22 18
15 13 12 12 11 10 12 12 11 12 14 17 15 13 12 10 10 10 11 11 12 14 16 19 22 25 27 29 32 34 36 38 40 41 43 44 45 45 44 43 40 37 33 28
Wind_Direction
240 228 234 238 236 240 230 225 233 242 254 263 263 260 264 272 274 267 284 283 278 279 281 282 284 291 297 300 301 301 300 300 297 298 302 296 291 296 301 302 299 297 297 298
243 234 230 235 235 245 252 250 248 246 252 257 257 259 265 274 280 291 296 288 282 281 283 287 292 295 297 298 298 298 297 297 296 296 297 292 290 296 300 300 300 300 299 298
246 241 238 238 238 244 247 249 249 248 249 253 258 265 272 277 279 284 285 283 284 285 286 288 290 292 293 294 295 295 295 295 295 296 292 287 289 295 298 299 299 298 297 298
249 246 246 250 247 246 248 249 251 255 261 266 268 269 271 274 278 282 285 285 286 286 286 286 287 288 289 290 290 291 292 291 293 293 290 288 294 299 300 299 300 300 301 303
251 250 252 250 249 250 252 254 258 261 262 265 268 270 271 274 277 281 284 285 284 284 284 284 284 284 286 287 288 290 291 290 290 291 294 298 301 302 301 301 301 303 305 306
252 250 248 245 248 253 256 258 260 260 261 264 267 270 273 275 277 280 282 282 283 282 282 281 281 282 284 285 287 288 288 289 291 298 305 307 306 304 303 304 306 308 308 309
254 250 244 245 247 250 252 256 261 263 264 266 269 272 276 279 281 283 283 283 282 281 280 280 281 282 283 284 286 287 289 292 296 302 307 309 307 306 306 308 309 309 309 310
257 251 244 247 248 250 255 260 262 263 265 268 271 275 278 282 285 287 286 284 283 282 282 282 283 284 284 286 287 289 293 297 301 305 307 307 307 308 308 308 309 309 310 310
253 254 255 254 253 256 259 262 263 264 265 267 271 275 279 283 286 287 287 286 285 285 285 285 287 288 288 289 291 294 298 302 305 306 306 307 307 307 307 308 309 310 312 314
252 250 251 257 262 264 264 264 263 264 266 268 270 273 277 281 282 284 287 288 288 288 288 288 288 288 289 292 296 301 303 304 306 306 306 306 306 307 310 311 313 315 319 323
256 256 258 263 266 268 268 267 266 264 265 266 267 269 273 274 276 282 286 288 289 288 289 290 291 293 296 300 303 305 306 307 307 306 306 307 311 314 315 317 321 323 324 325
265 263 263 265 266 265 265 265 266 264 262 261 262 263 263 264 268 275 281 286 287 290 294 298 301 305 308 309 309 308 307 307 307 309 312 315 318 320 321 322 322 323 324 327
266 264 261 261 261 262 265 270 270 264 257 252 254 255 251 250 257 269 281 288 294 298 302 307 311 312 312 311 310 310 311 312 315 317 319 321 322 321 319 320 323 325 327 330
272 271 270 267 264 263 263 261 254 243 231 238 247 243 235 240 256 274 285 296 304 309 313 317 316 315 314 314 315 316 317 319 320 320 320 321 321 322 323 326 328 329 330 334
288 280 272 264 250 238 231 221 211 212 220 229 237 235 235 244 258 282 304 316 321 323 324 324 323 322 322 322 322 323 324 325 323 322 323 324 325 327 329 332 333 333 336 341
326 306 280 217 196 208 218 219 208 189 174 168 163 169 197 237 299 324 333 336 334 333 332 331 330 328 327 327 328 329 330 332 333 332 331 332 334 336 340 343 345 349 352 351
68 72 86 102 108 108 108 124 141 141 135 124 108 93 22 349 355 1 356 348 345 344 342 339 336 335 336 336 338 339 339 339 339 338 340 342 344 348 354 359 8 15 10 7
94 87 85 85 83 80 97 121 130 127 116 99 81 59 43 42 42 25 8 2 359 355 350 347 347 346 346 348 352 350 347 344 344 345 348 353 359 4 10 18 26 29 30 34
120 102 94 91 92 97 102 108 111 109 99 85 70 62 61 63 50 32 24 18 12 6 3 2 359 357 359 5 7 6 4 2 0 360 2 7 14 21 29 37 40 39 46 63
142 123 108 100 100 105 107 107 104 97 86 72 65 73 82 75 61 51 41 33 26 22 18 14 13 16 20 21 21 21 20 17 16 16 19 24 31 39 46 51 50 53 72 80
158 139 119 100 93 101 110 111 104 91 78 71 85 98 94 84 74 64 54 45 39 34 30 29 31 33 34 33 34 33 32 31 31 32 34 39 46 51 56 60 62 69 82 85
173 163 155 138 94 97 122 132 126 109 85 89 107 109 102 93 82 73 63 55 49 44 41 41 42 42 41 42 43 42 41 41 41 42 45 48 53 57 60 64 72 79 85 88
200 202 204 207 211 195 177 173 170 162 127 123 126 121 111 100 90 81 72 64 57 51 49 50 50 49 47 48 49 48 47 47 47 48 50 52 55 58 62 68 75 81 86 89
228 235 234 235 238 233 217 199 194 192 163 148 141 130 119 109 101 91 80 71 63 56 53 54 53 52 52 52 52 51 50 50 50 51 52 54 57 60 64 68 72 77 84 89
233 233 233 234 238 239 230 213 203 198 177 162 151 138 129 119 109 98 87 77 69 60 56 56 55 54 55 55 55 55 54 53 53 53 54 56 58 61 64 67 69 71 76 82
224 226 226 227 229 232 226 216 206 199 184 170 159 147 139 129 116 106 97 87 77 67 62 60 58 56 56 57 57 57 57 57 57 57 57 58 59 61 63 65 66 67 68 70
219 219 217 215 215 213 209 206 200 194 186 175 164 155 147 137 125 114 107 99 88 76 69 66 63 60 58 58 59 59 59 59 59 59 59 59 60 61 62 63 64 64 63 63
Height
5752 5757 5759 5760 5762 5762 5761 5762 5766 5767 5765 5759 5758 5757 5755 5754 5753 5751 5753 5756 5755 5753 5750 5748 5746 5744 5741 5737 5733 5729 5725 5721 5717 5712 5707 5702 5697 5692 5686 5680 5674 5669 5664 5658
5742 5747 5750 5751 5754 5755 5754 5754 5755 5757 5757 5747 5747 5747 5747 5747 5744 5743 5745 5746 5746 5744 5742 5739 5736 5734 5730 5726 5722 5718 5713 5709 5704 5700 5694 5689 5683 5679 5673 5668 5662 5656 5651 5645
5734 5737 5738 5742 5746 5746 5746 5746 5745 5744 5741 5740 5741 5742 5741 5739 5737 5737 5737 5737 5736 5734 5732 5730 5727 5724 5720 5715 5711 5707 5702 5697 5693 5688 5683 5676 5671 5666 5661 5655 5649 5644 5639 5632
5725 5727 5729 5736 5735 5733 5734 5733 5733 5734 5733 5734 5736 5736 5735 5732 5728 5727 5727 5726 5725 5723 5721 5719 5716 5712 5708 5704 5700 5696 5691 5686 5682 5677 5672 5665 5659 5654 5648 5642 5637 5632 5627 5620
5714 5716 5720 5725 5720 5723 5724 5720 5723 5724 5725 5726 5727 5724 5725 5724 5721 5718 5716 5714 5712 5710 5708 5705 5702 5699 5696 5692 5689 5685 5680 5676 5671 5665 5659 5653 5647 5642 5636 5631 5626 5620 5614 5607
5704 5707 5710 5710 5709 5712 5713 5709 5712 5713 5715 5717 5716 5714 5714 5713 5711 5708 5706 5703 5701 5698 5696 5693 5690 5687 5684 5681 5678 5674 5670 5665 5659 5652 5647 5642 5636 5631 5626 5620 5614 5608 5602 5595
5695 5697 5700 5697 5700 5702 5703 5700 5702 5704 5706 5706 5705 5704 5704 5703 5700 5697 5694 5691 5689 5686 5684 5682 5679 5677 5674 5671 5667 5663 5659 5654 5648 5642 5636 5632 5626 5621 5615 5609 5604 5598 5592 5585
5687 5688 5690 5688 5690 5691 5691 5692 5693 5694 5695 5695 5694 5693 5693 5692 5690 5687 5684 5681 5678 5676 5674 5672 5670 5667 5664 5661 5658 5654 5649 5644 5638 5632 5627 5622 5617 5611 5605 5600 5594 5588 5582 5576
5682 5682 5680 5680 5680 5681 5683 5684 5685 5685 5685 5685 5685 5684 5684 5683 5681 5678 5676 5673 5671 5669 5667 5664 5662 5659 5657 5653 5649 5644 5639 5634 5629 5623 5618 5613 5608 5602 5597 5591 5584 5578 5573 5567
5674 5674 5673 5671 5671 5673 5675 5675 5675 5675 5675 5675 5675 5675 5676 5675 5673 5671 5669 5667 5665 5663 5660 5658 5656 5652 5649 5644 5640 5635 5630 5626 5622 5616 5610 5605 5599 5593 5587 5581 5575 5570 5566 5562
5667 5667 5666 5665 5665 5665 5665 5665 5665 5665 5665 5666 5666 5667 5667 5667 5666 5665 5664 5662 5660 5658 5655 5653 5649 5645 5641 5637 5633 5628 5623 5618 5613 5608 5602 5596 5590 5584 5578 5573 5569 5566 5561 5557
5659 5658 5658 5657 5656 5655 5655 5655 5655 5655 5656 5657 5657 5659 5660 5660 5661 5660 5659 5657 5656 5653 5651 5647 5644 5640 5636 5632 5627 5622 5617 5611 5605 5599 5593 5587 5582 5577 5572 5569 5565 5561 5556 5552
5650 5649 5648 5648 5648 5648 5648 5648 5647 5647 5648 5649 5651 5653 5654 5656 5657 5657 5656 5654 5652 5650 5647 5643 5640 5636 5631 5627 5621 5615 5609 5603 5597 5591 5586 5581 5577 5573 5570 5565 5561 5556 5552 5548
5645 5644 5642 5642 5641 5641 5642 5642 5642 5642 5644 5646 5648 5649 5651 5653 5655 5654 5653 5652 5650 5647 5643 5640 5636 5631 5626 5621 5615 5609 5603 5597 5591 5586 5581 5577 5573 5569 5565 5560 5556 5552 5549 5546
5640 5638 5637 5636 5636 5637 5638 5639 5640 5642 5643 5645 5647 5648 5650 5652 5653 5652 5651 5649 5647 5644 5640 5636 5632 5626 5621 5615 5608 5602 5596 5591 5586 5582 5577 5573 5569 5564 5560 5556 5552 5549 5547 5545
5639 5636 5635 5635 5635 5636 5637 5638 5640 5641 5643 5645 5646 5648 5650 5651 5651 5650 5649 5647 5645 5642 5638 5633 5628 5622 5616 5610 5604 5598 5592 5587 5583 5578 5574 5569 5565 5561 5557 5554 5550 5548 5547 5545
5640 5638 5637 5636 5637 5638 5638 5640 5641 5643 5645 5646 5648 5649 5650 5650 5650 5649 5648 5647 5644 5640 5636 5631 5625 5618 5611 5605 5599 5594 5589 5585 5580 5576 5571 5567 5563 5559 5556 5553 5550 5548 5547 5545
5642 5641 5640 5640 5640 5641 5642 5643 5645 5646 5647 5648 5649 5650 5650 5650 5650 5650 5649 5647 5644 5640 5635 5629 5622 5615 5608 5602 5597 5592 5587 5583 5578 5574 5569 5565 5562 5559 5556 5554 5551 5550 5548 5546
5645 5644 5644 5644 5644 5644 5645 5647 5648 5649 5649 5650 5651 5651 5651 5652 5652 5651 5650 5648 5645 5640 5635 5628 5621 5614 5608 5602 5598 5592 5587 5582 5578 5573 5569 5565 5562 5559 5557 5555 5553 5552 5550 5548
5647 5648 5648 5648 5648 5648 5649 5650 5651 5652 5652 5653 5653 5653 5654 5654 5654 5654 5653 5650 5646 5641 5635 5629 5622 5615 5609 5604 5600 5595 5589 5584 5578 5574 5570 5566 5563 5561 5559 5557 5556 5554 5553 5552
5649 5650 5651 5651 5652 5652 5652 5653 5654 5654 5655 5655 5655 5656 5657 5657 5657 5656 5654 5651 5647 5643 5639 5633 5625 5618 5613 5608 5603 5598 5592 5587 5581 5576 5572 5568 5565 5563 5561 5560 5559 5558 5557 5556
5649 5651 5652 5653 5654 5654 5655 5656 5656 5657 5657 5657 5658 5659 5660 5660 5660 5659 5657 5654 5651 5648 5643 5636 5629 5623 5618 5613 5607 5602 5597 5591 5586 5581 5576 5572 5569 5567 5565 5563 5562 5562 5561 5561
5649 5651 5653 5654 5655 5656 5656 5657 5658 5659 5659 5660 5661 5662 5663 5663 5662 5661 5660 5658 5655 5652 5648 5641 5635 5630 5626 5619 5614 5609 5604 5598 5593 5587 5583 5578 5575 5572 5570 5568 5567 5567 5567 5566
5648 5650 5652 5653 5655 5656 5657 5658 5659 5660 5660 5662 5663 5665 5666 5666 5666 5664 5663 5661 5660 5657 5653 5648 5643 5638 5633 5627 5621 5616 5611 5606 5601 5596 5591 5586 5582 5578 5576 5574 5573 5573 5572 5572
5645 5648 5650 5652 5654 5655 5656 5658 5659 5660 5662 5663 5665 5667 5668 5669 5669 5667 5666 5665 5664 5662 5659 5654 5650 5646 5641 5636 5631 5625 5620 5615 5610 5605 5600 5595 5590 5586 5583 5581 5580 5579 5578 5577
5643 5645 5647 5649 5652 5653 5655 5657 5659 5661 5662 5665 5667 5669 5671 5671 5671 5670 5670 5669 5668 5667 5664 5661 5657 5653 5649 5645 5640 5636 5631 5626 5621 5616 5611 5606 5601 5597 5593 5590 5588 5586 5584 5583
5641 5643 5645 5647 5649 5651 5654 5656 5658 5661 5663 5666 5668 5670 5672 5673 5674 5673 5673 5672 5672 5671 5669 5666 5663 5660 5657 5653 5650 5645 5641 5637 5632 5628 5623 5618 5613 5609 5605 5601 5598 5595 5592 5590